Погода в Большом Чеменеве

Россия / Чувашская Республика     55°01′27″N   47°14′45″E
темп.,
°C
ветер,
м/с
пор.,
м/с
влажн.,
%
обл.,
%
осадки,
мм/ч
давл.,
гПа
погр.,
м
18 января, вт
вт1800:00−5ююз61593100 0.4 998861
03:00−4ююз61492100 0.8 998755
06:00−3ююз51495100 0.5 998777
09:00−2ююз51395100 1.2 1000754
12:00−1ю51395100 0.8 1001660
15:00−1ю51296100 1.5 1003730
18:000ююз51297100 0.6 1005778
21:00−1ююз51296100 1.2 1007702
19 января, ср
ср1900:00−1юз51296100 0.8 1009673
03:00−2юз41197100 1.4 1010546
06:00−3зюз379694 0.9 1011299
09:00−6сз2397100 1.4 1014158
12:00−6зсз2393100 0.1 1015249
15:00−8с119895 0.2 101610
18:00−9ссз009784 0.3 101833
21:00−16з1110096 0.3 10199
20 января, чт
чт2000:00
03:00−18юз11100100 0.1 102010
06:00−15ююз27100100 0.0 1020108
09:00
12:00−8юз41293100 0.0 1020349
15:00−8юз4138769 0.0 1021426
18:00−10ююз410906 0.0 1021253
21:00−12ююз311925 0.0 1022205
21 января, пт
пт2100:00−12ююз312895 0.0 1022226
03:00−15ю28956 0.0 1023105
06:00−15ю269983 0.0 102377
09:00−12ююв299987 0.0 1023143
12:00−6ю4119378 0.0 1023461
15:00−7ююв41094100 0.0 1023377
18:00−10ююв4129596 0.0 1023301
21:00−11ююв41395100 0.0 1023307
22 января, сб
сб2200:00−10ююв51494100 0.0 1023384
03:00−10ююв51493100 0.0 1023390
06:00−10юв51493100 0.0 1023385
09:00−9ююв51592100 0.0 1024405
12:00−8ююв51392100 0.0 1025392
15:00−8ююв41293100 0.1 1026423
18:00−9юв41293100 0.0 1027386
21:00−9юв41294100 0.0 1027360